Wind_Speed
3 2 3 4 5 5 6 6 6 6 8 8 6 5 6 7 7 4 4 11 18 13 11 14 11 12 16 11 8 8 7 9 12 13 11 12 12 12 14 15 15 16 15 19 28 30 30 33 35 36 36 36 37 37 36 36 35 35 33 32 33 34 32 31 30 29 28 28 27 25 25 24 23 25 24 22 20 17 16 16 16 17 16 15 13 12
4 4 5 7 7 7 7 6 7 8 10 9 6 6 7 7 8 7 4 12 18 13 9 11 10 13 17 14 9 7 7 8 11 15 17 17 14 12 15 16 15 13 13 17 23 28 30 31 35 36 36 36 36 36 37 37 36 37 35 34 34 34 33 33 32 31 31 30 28 27 28 25 22 23 26 25 23 19 16 16 17 18 17 16 15 13
3 4 8 9 8 8 8 7 8 9 10 9 5 5 6 6 6 7 5 13 15 7 7 12 11 11 15 16 13 9 8 11 14 16 17 18 16 13 14 16 15 13 14 15 18 25 29 30 35 35 34 37 38 37 38 38 38 38 36 35 35 34 35 35 33 32 32 31 29 28 28 25 20 23 25 24 22 20 17 16 16 17 17 16 15 14
3 5 10 11 9 8 9 9 8 8 7 7 6 5 7 7 3 3 3 9 8 3 3 7 5 4 10 14 14 13 12 12 14 15 14 15 16 16 16 15 15 16 16 15 16 21 25 29 33 33 34 37 37 37 38 38 39 38 38 38 36 35 36 36 35 33 32 31 29 28 27 23 19 22 24 23 23 20 18 16 16 16 15 14 14 14
6 9 10 9 8 9 8 8 7 6 5 6 7 7 8 9 6 3 1 3 4 9 6 2 4 3 5 11 13 14 16 14 13 14 13 13 15 15 15 15 15 16 16 16 17 19 21 25 30 32 35 37 36 37 38 39 40 39 39 40 38 37 36 36 36 34 31 30 29 28 26 21 19 22 24 25 24 23 21 19 18 18 16 15 15 14
7 11 8 7 9 8 8 8 7 6 4 6 7 9 11 11 10 6 3 4 4 2 6 6 3 4 4 8 11 12 15 14 12 14 14 14 14 13 14 15 15 15 16 15 16 17 19 23 28 31 35 36 36 38 40 41 41 40 40 41 40 39 37 37 37 35 32 31 30 30 28 23 21 23 26 27 27 26 25 21 20 19 18 17 16 15
6 10 8 8 10 10 9 8 8 7 5 5 6 8 11 9 8 7 5 5 4 4 10 9 5 3 3 6 10 11 13 13 11 13 14 13 13 13 14 14 15 15 16 16 15 16 19 23 26 29 33 37 36 38 41 42 41 41 41 41 41 40 38 38 37 36 34 32 31 32 32 27 25 26 26 28 28 27 26 23 21 21 20 20 18 16
4 7 7 6 7 8 7 7 9 8 5 5 7 8 9 7 6 6 5 5 4 3 6 7 5 3 2 6 10 11 11 11 12 14 14 14 15 15 15 15 16 17 17 17 16 16 19 23 27 29 33 37 38 39 41 41 41 42 43 42 42 41 39 39 38 37 36 34 33 34 33 30 29 29 28 27 28 28 26 24 22 22 21 21 20 18
3 2 3 2 1 4 5 8 11 8 6 6 9 9 8 7 5 4 4 4 3 3 4 6 6 4 3 6 8 11 12 13 15 17 17 17 17 16 16 16 16 17 18 18 17 17 19 24 29 32 34 37 38 40 41 42 42 43 44 43 42 41 40 39 39 38 37 36 35 35 34 31 31 31 28 26 28 29 27 24 23 23 23 21 21 20
3 2 4 3 2 3 4 8 11 8 6 7 9 10 8 6 3 1 2 2 2 4 4 8 6 4 4 4 7 9 11 14 16 17 18 18 17 16 16 16 15 15 16 17 18 17 20 27 32 33 35 36 37 40 42 42 42 42 43 43 42 42 41 40 40 40 39 37 36 36 36 34 32 32 29 26 28 30 28 25 24 24 24 23 22 21
4 3 3 3 3 4 4 5 6 8 8 6 5 7 7 5 3 2 2 2 3 1 5 8 9 7 4 3 7 10 15 19 17 14 14 16 16 16 15 15 15 14 14 16 17 16 20 28 32 33 34 35 37 38 40 40 41 43 43 44 43 42 42 40 40 41 41 39 37 36 37 35 34 33 30 28 30 32 30 27 26 25 25 24 24 22
6 3 2 4 1 2 4 4 3 2 4 4 1 1 3 5 4 4 4 3 2 4 6 6 7 8 5 4 8 14 20 21 18 16 18 19 20 18 16 16 15 15 14 15 16 15 17 21 27 31 32 34 36 37 38 39 40 42 43 44 43 41 41 41 41 41 42 41 38 38 38 37 36 35 33 31 33 33 32 30 28 27 26 26 26 25
6 3 3 4 2 8 7 4 6 6 3 1 1 5 3 3 3 3 3 1 3 4 6 5 5 4 5 5 10 18 21 18 15 15 17 21 22 19 18 18 16 15 16 16 15 15 15 15 20 27 30 33 35 36 38 39 39 41 42 44 43 42 42 42 42 42 42 42 40 39 39 37 37 37 35 34 35 34 33 32 30 29 28 28 28 28
4 4 7 6 4 8 8 6 5 6 6 4 1 3 2 1 1 2 3 2 2 5 6 4 4 2 4 5 10 18 21 18 14 14 15 18 20 21 19 18 16 15 16 15 15 16 15 14 19 26 30 32 34 37 39 39 40 40 40 43 44 43 43 43 43 43 43 43 42 40 40 38 36 37 37 36 36 35 33 33 32 31 30 29 29 29
2 2 5 7 4 6 8 6 1 4 6 5 3 5 3 4 3 3 2 1 3 5 5 1 2 3 4 5 8 15 18 17 15 14 15 16 17 17 15 13 13 14 15 14 15 17 16 17 22 28 31 32 35 38 39 39 40 41 40 43 44 43 43 43 43 44 43 44 43 41 40 38 36 37 39 38 37 35 34 33 32 31 32 31 29 29
2 3 4 3 1 4 10 8 5 5 5 4 1 4 2 4 4 2 3 4 3 2 4 2 1 4 5 6 7 9 12 14 15 14 14 15 15 13 11 12 14 14 15 15 15 17 18 19 24 29 31 32 35 39 40 40 42 42 42 44 45 45 44 44 44 44 44 44 44 42 41 39 37 37 39 39 38 37 35 34 32 32 32 32 30 29
2 4 6 6 2 7 11 11 6 5 4 4 3 0 5 5 5 2 3 2 2 1 4 3 3 4 3 6 6 6 10 13 14 14 15 16 15 15 13 14 15 15 16 17 16 18 18 19 24 29 32 33 35 38 41 42 44 44 43 44 44 44 45 45 45 45 45 44 43 43 43 41 39 38 39 41 40 38 36 34 32 32 32 31 31 30
1 4 5 7 6 7 12 11 3 4 4 2 3 6 7 3 3 3 1 2 1 1 4 4 4 4 3 4 7 3 9 14 16 15 15 16 16 16 16 16 17 18 18 18 18 18 18 18 23 30 34 36 38 40 42 43 44 45 45 45 45 43 44 45 45 45 45 44 44 43 44 43 41 41 41 41 42 40 38 35 33 31 31 31 31 30
2 3 4 7 8 9 11 8 4 7 9 5 2 7 5 2 1 1 1 1 1 1 3 4 4 3 2 4 7 8 8 12 16 17 15 16 17 17 17 17 19 18 16 17 16 16 17 17 22 29 33 37 39 40 42 43 43 44 44 45 45 45 45 45 44 44 44 44 44 44 44 45 44 43 42 42 41 41 40 38 36 34 33 32 31 30
3 3 4 5 9 9 7 5 4 9 13 10 7 8 5 2 3 1 2 3 2 2 3 3 4 3 3 4 6 10 11 7 13 16 14 17 19 19 18 17 17 17 16 16 16 16 17 18 24 31 34 36 38 39 40 41 41 42 43 43 44 44 44 44 43 42 42 43 43 42 43 44 44 43 42 41 41 41 41 41 39 38 37 35 34 33
4 4 4 6 9 6 3 5 5 6 9 10 9 8 7 6 3 2 3 2 2 3 3 1 3 3 2 6 10 12 15 10 9 15 14 17 20 20 19 18 18 17 17 17 17 17 17 18 24 31 34 35 37 37 38 39 40 41 40 41 43 43 42 43 43 42 42 42 42 42 42 42 43 42 42 41 41 41 42 41 40 39 38 38 37 36
3 2 3 5 6 4 2 3 5 6 5 2 2 4 6 6 4 3 4 3 1 2 4 3 4 3 4 6 9 12 15 15 9 15 15 15 20 19 18 19 19 18 18 18 18 18 17 17 22 28 31 32 33 34 36 38 38 38 39 40 41 42 42 43 43 43 43 42 42 42 43 42 42 42 41 41 41 42 42 41 41 40 39 38 38 37
2 1 3 4 4 7 8 6 5 6 4 2 3 4 6 6 4 3 3 5 4 3 2 2 4 3 6 9 11 12 14 18 10 15 18 16 18 19 18 19 20 19 20 20 18 17 16 17 22 26 28 30 32 33 35 36 36 37 38 39 40 40 42 43 43 43 42 42 42 43 43 42 41 41 41 41 41 41 42 41 41 40 39 39 38 37
3 2 3 5 5 6 8 4 1 5 6 4 4 7 7 7 7 5 4 3 3 3 4 2 3 3 8 11 13 14 15 19 15 8 15 15 16 18 18 19 18 18 18 18 17 15 14 16 20 21 23 26 30 32 34 35 36 37 37 38 39 40 42 42 41 41 41 41 42 43 42 41 41 40 40 40 41 41 42 42 41 40 40 39 38 38
2 2 3 4 5 6 7 5 4 7 8 4 4 8 8 9 10 8 4 1 1 1 2 1 3 3 9 10 11 16 18 20 20 12 1 5 8 12 15 14 14 14 14 15 15 14 13 15 15 16 19 24 27 30 33 34 35 36 37 38 39 40 41 41 40 40 40 40 40 40 41 41 40 40 40 41 41 41 41 41 41 40 40 39 39 38
1 2 3 3 2 2 3 4 4 6 6 4 6 9 10 11 12 8 4 3 1 1 2 0 2 6 11 12 13 18 20 20 22 19 12 8 6 3 4 4 5 5 6 10 12 13 14 15 14 15 19 23 25 28 31 32 34 35 36 38 39 38 39 39 39 39 39 40 39 39 40 41 41 40 41 41 41 40 40 40 40 40 40 40 39 38
2 2 2 4 4 4 5 5 5 5 6 7 8 11 11 11 10 7 3 2 2 4 5 2 2 7 13 14 16 18 19 20 21 21 17 13 13 13 11 11 11 9 6 3 2 3 6 10 12 14 17 22 25 26 28 30 32 33 33 35 37 37 38 38 39 39 39 39 39 39 40 41 41 41 40 41 41 40 39 39 39 39 40 40 39 38
3 2 1 3 4 5 7 7 7 7 7 8 9 9 11 11 10 7 5 4 3 4 6 5 1 7 10 10 12 14 15 17 19 21 18 14 12 13 15 16 17 16 13 12 11 9 5 1 6 9 12 18 22 24 26 28 29 30 31 33 33 34 36 37 37 38 38 38 38 39 40 40 40 40 40 40 41 40 39 39 39 39 39 39 39 39
3 1 2 1 2 5 5 6 8 8 7 8 8 8 11 12 10 8 8 8 5 2 6 9 6 5 6 8 10 10 12 14 15 18 18 16 14 14 17 18 17 16 15 15 14 12 11 9 3 2 7 13 16 17 18 20 23 24 25 28 31 32 33 35 36 37 37 38 38 38 39 38 38 38 39 39 40 40 40 39 39 39 38 38 39 39
3 1 3 3 4 5 6 7 9 9 9 9 8 8 9 10 11 10 11 11 8 6 9 11 6 2 2 6 7 8 9 9 10 14 18 19 19 17 17 17 16 15 15 14 13 12 12 12 11 8 3 3 9 13 13 14 18 21 23 26 28 30 31 33 35 36 36 37 38 38 38 37 37 37 38 39 39 40 40 39 39 38 38 39 39 39
3 2 4 3 3 4 6 7 9 10 10 10 10 9 8 10 11 10 9 10 8 6 7 7 4 1 2 4 4 6 9 9 11 15 17 18 18 17 17 16 15 15 14 13 13 12 12 12 13 12 11 11 6 4 15 20 22 23 24 27 29 31 32 34 35 36 37 37 37 37 37 37 37 37 37 39 39 39 40 39 38 38 38 39 39 39
2 1 3 4 3 3 5 8 11 12 12 10 8 7 7 8 9 8 8 9 6 3 4 5 2 1 4 5 3 5 9 10 11 13 13 13 16 17 17 16 14 14 14 13 13 13 12 12 12 11 11 15 19 14 4 14 22 25 25 27 30 32 33 34 35 35 37 37 37 37 37 38 38 38 38 39 39 39 39 39 38 38 37 38 38 39
2 1 1 2 1 3 4 6 8 9 9 6 4 3 8 9 9 8 5 5 4 1 1 1 1 2 5 4 4 6 8 10 9 10 10 10 13 16 16 15 14 12 12 13 13 13 12 10 10 11 11 13 17 20 19 10 10 22 29 30 30 31 33 33 33 34 34 36 37 38 39 38 38 39 39 39 40 39 38 38 38 38 38 37 38 38
2 3 0 1 1 3 4 5 6 5 3 4 4 5 10 11 9 8 6 6 7 5 1 1 1 3 5 3 3 4 6 8 7 7 9 8 9 12 14 15 14 13 13 12 12 13 11 11 12 14 14 14 15 18 22 21 16 10 21 32 33 33 34 33 32 33 34 35 37 38 38 39 39 39 39 39 39 39 38 38 38 38 38 37 37 37
2 2 1 1 2 2 3 5 5 2 3 5 5 8 10 9 7 7 6 7 11 11 8 5 5 7 7 6 2 3 6 7 8 8 9 8 8 9 11 13 14 15 14 12 11 12 12 14 17 19 20 19 16 17 21 22 24 24 17 19 29 33 34 33 33 32 31 33 36 37 38 39 39 39 39 39 38 38 38 38 38 38 37 36 36 37
4 3 1 1 1 0 1 2 1 4 6 8 8 7 9 9 8 6 5 5 10 12 11 9 8 9 9 8 6 2 5 7 8 9 8 9 10 9 9 10 11 13 12 12 12 13 14 16 18 18 20 22 19 19 22 23 21 23 26 25 22 25 27 29 31 32 31 31 34 36 37 38 38 38 38 38 38 37 38 38 38 38 37 36 36 36
5 3 1 1 1 1 1 2 2 4 8 7 4 4 6 6 6 5 4 3 7 9 10 10 9 11 12 10 10 9 2 4 6 8 8 10 10 9 8 9 10 12 13 14 16 16 17 19 19 19 19 20 21 22 23 25 22 18 22 29 28 22 22 24 27 29 30 30 32 35 37 37 38 37 37 37 37 37 37 37 37 37 37 36 35 35
4 4 3 2 2 2 1 2 2 3 4 2 2 6 7 5 6 7 5 2 5 9 11 10 9 11 12 12 13 12 4 3 5 5 6 8 7 6 7 8 10 12 14 16 18 19 21 22 21 21 21 19 21 24 22 21 21 18 18 25 30 22 17 21 25 27 29 29 31 35 37 37 38 37 37 37 37 37 37 37 37 37 37 37 36 36
2 2 4 3 2 2 2 3 2 3 4 2 4 8 9 7 7 7 4 2 4 10 12 11 10 9 10 11 12 10 5 5 4 4 4 6 5 5 6 6 9 12 14 16 17 17 19 20 19 20 22 22 22 24 23 21 20 17 15 20 28 23 13 13 17 21 27 30 31 33 36 38 38 38 38 38 38 37 37 37 37 37 37 38 37 36
4 2 4 3 3 3 3 3 3 3 3 2 6 9 11 9 6 4 3 2 5 9 10 10 10 9 8 9 9 7 5 4 4 5 4 3 3 5 6 6 8 11 13 16 17 17 16 16 17 18 19 21 23 24 24 23 22 18 15 18 23 21 15 13 14 14 17 22 28 33 35 37 39 39 39 39 38 37 37 37 37 36 37 37 37 36
3 1 2 2 3 5 5 4 3 3 1 3 6 9 10 8 3 1 2 3 5 8 8 7 8 7 6 7 6 4 4 5 6 6 5 3 3 5 7 8 10 13 14 15 17 18 17 16 17 17 16 18 21 22 22 22 21 20 19 19 20 19 18 18 18 19 19 18 21 30 35 36 38 40 40 39 38 37 37 37 37 36 36 36 36 35
1 1 1 2 2 3 3 2 3 3 0 4 7 8 6 3 1 2 3 4 6 8 7 7 7 6 5 5 4 4 6 9 8 8 7 5 4 4 7 9 11 13 15 14 15 18 17 16 17 18 18 19 20 20 19 18 18 18 19 19 20 22 23 23 22 22 23 22 19 25 33 35 37 39 39 38 37 36 36 37 36 36 36 35 35 35
2 0 2 2 1 1 1 1 3 3 2 7 8 5 4 2 2 4 5 5 6 7 7 7 7 6 4 5 5 6 8 10 10 9 9 7 4 5 7 9 10 12 14 15 16 18 17 15 15 17 19 20 20 19 18 16 15 16 17 19 22 26 27 25 25 25 25 24 20 22 30 35 36 38 37 36 36 37 36 35 35 35 35 34 34 33
2 3 1 2 1 1 2 3 3 2 0 4 4 1 3 3 3 4 5 5 5 5 6 7 7 7 7 7 6 6 7 9 9 9 10 8 5 5 7 8 9 12 15 16 17 19 18 16 15 16 17 18 20 21 20 18 16 16 18 20 25 28 28 27 26 26 26 25 22 21 28 33 35 37 37 37 36 36 35 34 35 34 33 34 33 32
3 3 2 2 3 2 4 6 3 0 1 3 2 3 5 5 4 4 5 6 5 5 6 7 9 11 10 9 8 6 5 8 9 8 9 8 6 5 6 7 9 11 14 17 19 20 20 19 17 17 17 18 20 23 23 21 19 18 20 24 27 27 27 27 27 27 27 26 24 22 26 31 33 36 37 37 36 36 35 34 33 32 32 33 33 32
3 3 2 1 2 3 4 6 4 3 3 5 5 4 4 4 5 6 6 6 5 6 7 8 10 12 13 12 9 6 6 7 8 8 8 7 7 7 6 7 9 10 13 17 20 21 21 19 18 18 18 20 22 23 24 23 21 20 22 25 26 26 26 27 26 26 26 27 25 22 25 29 31 34 36 36 37 37 36 36 34 33 32 32 33 33
2 2 2 1 0 2 3 4 3 4 6 8 7 5 5 7 7 6 6 6 7 7 8 9 10 12 13 13 11 8 8 8 7 8 7 6 6 7 6 6 8 10 11 13 17 20 21 19 18 17 18 20 22 23 22 22 23 23 24 25 25 25 25 26 25 24 25 26 25 22 25 28 30 32 33 34 35 34 34 35 35 34 33 33 32 32
2 3 2 2 2 2 5 7 6 7 9 8 4 3 6 8 9 9 8 8 9 9 9 10 10 10 11 11 12 11 10 8 7 7 6 4 5 6 6 8 9 10 10 12 15 19 20 19 18 18 18 19 22 23 22 22 24 26 27 27 27 26 26 26 24 23 24 26 26 21 24 29 31 31 31 32 34 34 33 34 35 34 34 36 35 33
4 3 2 2 1 3 6 7 6 8 8 5 3 5 7 7 9 11 11 11 10 10 10 10 10 11 11 12 12 11 10 8 7 6 6 5 4 5 7 11 12 11 11 12 15 18 19 19 19 19 19 20 22 23 23 22 24 27 29 30 29 27 27 26 24 24 24 24 24 21 22 29 30 31 32 32 33 35 35 36 37 37 37 38 39 39
3 3 2 2 0 4 5 3 1 4 6 5 5 8 9 9 10 11 12 11 11 10 10 11 12 13 14 14 13 11 11 9 7 6 5 5 4 5 8 12 13 12 11 11 14 17 18 19 19 19 20 22 23 24 25 25 25 28 32 33 30 29 29 26 23 23 23 21 22 21 19 26 29 29 31 32 32 33 33 33 35 37 37 37 40 42
5 5 5 4 4 5 6 5 3 3 5 7 8 9 9 9 10 11 12 13 12 11 11 11 11 12 13 15 16 13 11 9 8 7 5 5 7 8 9 12 14 13 10 9 12 15 17 18 18 19 21 23 24 24 26 27 27 30 34 35 33 34 33 27 22 20 20 19 21 24 18 21 27 27 29 32 31 29 28 28 31 34 36 37 38 41
Wind_Direction
170 189 239 224 229 223 232 227 207 242 269 277 296 296 288 288 280 257 217 193 176 181 200 188 181 167 165 173 182 185 173 166 169 165 182 206 190 174 177 177 174 179 182 178 179 178 174 171 170 171 172 173 174 175 176 177 180 182 181 182 185 187 186 183 183 185 186 186 186 188 189 186 184 184 184 187 188 186 186 187 184 179 177 175 175 179
153 185 232 227 225 227 232 233 224 238 257 267 274 278 284 274 271 284 248 202 184 182 199 185 175 169 167 174 179 174 175 185 182 178 185 192 187 176 177 180 176 175 177 174 177 178 174 171 170 171 172 172 173 175 176 177 179 180 181 181 182 185 186 184 184 184 185 188 188 187 187 188 191 191 188 188 189 187 186 188 187 184 182 179 178 181
173 213 231 227 226 229 236 235 228 235 244 255 259 258 272 268 276 302 257 195 183 190 210 188 176 168 166 172 181 181 184 195 194 189 186 181 179 178 177 179 177 172 175 173 173 177 175 171 170 170 172 173 174 175 177 178 178 179 180 181 182 184 186 186 184 184 187 189 189 186 186 187 190 192 193 195 193 190 189 191 191 190 189 186 182 183
188 239 230 223 219 220 234 237 228 233 239 244 247 245 258 261 260 307 272 184 161 11 300 192 166 147 160 170 183 191 193 195 198 196 186 175 176 180 179 177 176 175 176 174 172 176 175 172 172 171 171 173 174 175 177 177 177 178 180 181 182 184 185 185 185 188 189 187 186 185 184 185 182 183 190 194 193 192 194 194 194 195 195 194 190 190
206 234 227 219 224 224 231 241 234 230 244 243 235 233 247 259 242 209 204 145 87 11 351 86 39 344 181 178 185 188 193 198 195 188 183 183 181 177 178 178 178 179 179 175 173 177 176 172 174 172 171 172 174 175 177 177 177 178 180 181 183 184 185 186 187 189 188 183 182 183 183 183 177 175 179 182 186 191 194 194 193 193 197 200 198 197
226 236 220 201 219 231 233 243 236 214 235 257 237 229 235 249 252 227 180 125 89 338 231 169 109 292 239 195 191 183 189 195 190 185 183 185 183 176 178 180 180 181 181 179 174 176 177 173 174 173 171 173 174 176 178 178 179 179 180 181 183 185 186 187 188 189 186 181 180 183 184 184 177 174 178 182 184 188 192 193 191 190 196 201 201 200
228 237 220 198 207 218 225 241 239 209 211 257 241 230 235 244 256 247 208 157 153 206 199 176 156 217 237 211 202 188 189 189 185 191 189 185 184 180 180 181 180 181 181 182 177 175 177 174 173 173 173 174 176 177 178 179 180 179 180 181 183 185 187 188 189 190 187 182 183 184 184 184 180 178 183 188 190 190 191 192 191 190 193 199 201 200
241 246 230 213 203 207 215 235 238 207 186 244 252 246 252 257 260 254 229 192 210 188 156 156 128 125 208 220 205 188 187 191 190 195 193 191 189 185 184 181 179 181 181 182 179 176 178 176 175 175 176 177 176 176 177 178 180 180 181 182 183 185 187 189 189 190 189 186 186 187 186 186 186 184 185 189 193 193 191 192 193 192 193 199 201 200
277 306 284 280 230 212 206 222 230 213 194 235 252 256 259 256 254 250 230 214 206 117 156 187 139 115 234 224 196 185 189 198 200 199 196 194 192 188 188 184 181 182 180 182 183 178 177 178 177 176 177 178 176 176 177 179 180 181 181 182 183 185 187 189 190 190 190 189 189 190 188 188 190 190 189 188 193 193 191 193 196 196 196 198 199 199
253 288 300 312 276 232 221 226 222 207 215 235 245 258 268 267 264 145 167 207 125 116 197 214 171 155 254 220 176 180 197 207 206 203 199 195 193 191 190 186 184 182 181 183 184 179 177 179 179 176 176 178 177 177 178 179 180 180 180 181 183 185 187 189 190 191 191 190 192 192 191 190 190 191 191 189 192 192 191 194 196 198 199 199 196 198
269 270 268 268 236 231 251 258 221 196 214 238 255 270 286 305 328 66 95 99 101 198 227 210 187 191 250 238 176 182 203 206 202 199 196 195 195 194 192 190 186 183 183 184 184 181 177 178 180 177 175 177 178 178 178 178 179 179 180 182 184 186 188 189 191 192 192 193 195 196 194 193 191 191 191 191 191 192 193 195 196 198 200 199 197 198
318 351 281 257 270 329 303 308 312 250 213 214 224 14 333 326 349 13 9 48 152 256 246 201 175 183 225 246 194 200 212 207 198 194 189 189 195 194 192 191 189 184 182 183 182 181 176 175 179 178 176 177 177 178 178 178 179 180 181 182 184 186 188 190 191 192 194 195 198 199 197 196 194 193 194 193 190 191 193 195 197 199 199 198 198 199
323 336 315 277 43 28 2 348 338 338 17 73 71 60 51 335 338 339 333 312 207 248 240 191 142 175 227 238 203 207 218 213 204 203 192 188 191 192 192 190 189 185 182 183 181 179 178 175 178 179 177 176 177 178 179 179 180 181 182 183 184 186 188 190 191 193 195 197 199 201 200 199 197 197 197 194 191 192 196 197 197 199 199 198 198 200
328 329 353 2 23 19 25 40 360 328 345 347 136 106 113 139 357 276 276 293 255 266 261 192 137 209 256 256 211 207 217 214 204 208 201 193 191 192 194 190 187 186 183 184 182 180 182 178 179 181 178 177 178 180 180 180 180 182 183 184 185 187 189 190 191 193 195 198 201 202 202 202 200 200 198 195 193 194 199 201 200 201 201 199 198 200
353 312 1 21 339 339 23 47 335 285 307 296 197 140 136 158 162 213 221 228 247 277 297 6 120 194 210 243 217 204 214 212 202 205 198 195 197 192 188 185 186 189 186 187 187 185 185 180 180 182 180 179 179 180 181 181 182 182 184 186 187 188 189 190 192 193 196 199 201 203 204 204 202 201 198 196 196 197 200 204 203 201 202 201 200 201
16 254 299 2 303 8 13 354 332 339 322 286 191 113 151 185 169 188 204 190 189 286 307 328 216 212 207 256 246 205 213 213 204 204 194 193 195 182 177 184 189 191 189 189 190 189 189 182 180 182 182 181 180 181 183 183 183 184 185 187 188 189 190 191 193 194 197 199 201 203 205 205 203 201 199 198 199 199 200 204 205 203 203 203 203 203
11 275 311 343 20 56 16 334 341 15 324 299 350 330 232 209 151 152 264 242 144 221 273 274 261 281 308 295 270 193 197 215 212 201 192 192 185 174 183 190 190 192 190 191 191 190 191 185 182 184 183 182 182 183 185 185 185 185 186 187 189 189 190 192 194 196 198 199 201 203 205 206 204 202 200 200 201 201 201 203 206 206 205 205 206 205
347 275 336 8 0 16 357 324 316 59 33 9 321 300 292 294 117 121 275 321 36 197 269 279 261 294 339 298 289 225 187 207 216 208 194 187 178 179 190 191 190 192 190 192 192 190 191 188 185 185 185 185 184 185 186 187 187 187 188 189 189 190 191 193 195 197 198 200 201 204 205 206 206 204 203 202 203 203 203 204 206 207 208 208 209 208
350 298 328 26 9 343 345 348 349 358 14 50 303 314 333 331 314 55 133 230 264 206 270 292 282 275 227 242 286 280 235 206 208 211 196 182 181 186 192 192 192 192 189 191 193 191 192 190 187 187 187 187 186 186 187 187 187 189 190 191 191 192 193 194 195 197 199 201 202 204 206 207 207 206 205 205 204 204 205 207 208 210 212 212 212 212
13 16 291 346 10 345 341 25 20 339 347 4 6 355 355 299 260 262 195 189 183 205 241 305 314 284 248 268 294 286 281 244 203 208 197 183 187 190 190 190 190 189 189 190 191 193 193 190 189 188 188 188 187 186 187 187 188 190 191 191 192 193 194 195 196 198 199 201 203 205 207 208 209 209 208 207 207 207 209 211 212 213 215 215 215 215
20 45 293 317 355 352 12 44 28 352 339 346 358 3 356 339 319 293 258 205 151 176 194 237 271 274 339 334 331 325 317 305 222 208 202 190 191 192 190 188 188 188 190 190 189 192 192 190 190 189 188 188 188 187 187 188 189 190 191 191 193 194 194 195 197 198 200 202 204 206 208 209 210 211 211 210 209 210 212 213 214 215 215 216 217 217
11 21 314 327 339 330 6 17 336 302 284 292 5 2 350 339 336 340 314 306 43 188 194 192 233 275 15 357 338 335 325 315 261 211 207 198 193 193 191 188 187 188 189 191 190 189 190 190 189 188 187 187 187 187 188 189 190 190 191 192 193 194 195 196 197 198 200 202 204 206 208 210 211 212 212 212 212 212 213 214 215 216 215 216 218 219
11 51 339 321 295 289 294 290 289 292 274 161 75 16 349 340 351 360 313 309 328 307 263 211 219 268 354 1 350 341 331 329 300 212 201 200 194 192 192 190 189 189 188 189 189 186 186 188 187 186 185 185 187 188 188 189 190 190 191 192 193 195 196 197 198 199 200 201 204 207 208 210 211 212 213 213 213 214 214 214 215 216 216 217 218 219
353 52 5 318 289 298 308 295 74 39 38 56 24 5 354 343 337 322 286 272 301 331 354 325 241 291 345 350 349 343 343 349 339 241 201 198 195 191 191 190 189 190 190 187 187 186 182 182 185 185 184 185 187 189 189 189 190 191 192 192 193 195 197 198 198 199 201 202 204 206 208 210 211 212 213 214 215 216 216 216 216 216 216 218 219 219
340 56 51 357 329 334 352 4 11 15 25 27 334 337 336 330 330 324 318 341 330 37 43 319 243 304 327 329 343 350 355 2 355 344 304 175 196 196 191 190 189 188 187 184 185 183 179 180 183 185 186 186 187 189 190 190 191 191 192 192 194 196 197 197 198 199 201 203 205 206 207 209 211 212 213 215 216 217 217 216 216 216 217 218 219 220
107 92 102 90 34 320 323 336 321 323 340 335 315 322 326 330 336 334 338 4 349 341 16 336 240 302 316 332 353 357 0 4 357 357 19 50 55 97 140 150 168 176 181 186 187 184 183 183 184 185 188 188 188 190 191 192 192 192 193 193 194 195 196 196 197 199 201 203 204 206 208 209 210 212 213 215 217 219 219 218 217 217 217 218 219 220
74 50 100 145 158 207 235 248 255 266 291 303 308 317 321 325 332 336 338 328 285 317 324 221 196 323 329 349 1 355 358 2 357 2 19 37 50 63 71 70 67 56 44 54 106 168 182 188 189 187 187 189 189 190 192 194 194 193 193 194 195 195 195 195 197 198 200 202 204 206 208 209 210 211 213 215 217 218 219 220 219 218 218 219 219 220
71 6 308 183 194 229 241 255 271 275 280 288 299 313 315 313 320 325 310 286 290 332 309 266 328 350 336 357 4 349 355 2 354 359 12 20 37 60 67 66 65 58 49 43 38 34 36 150 195 191 190 191 192 192 193 195 196 195 194 194 194 194 194 195 196 198 200 202 204 207 209 210 211 212 214 216 217 218 219 220 220 220 219 219 219 220
106 226 268 331 308 284 283 298 304 301 297 293 291 292 295 299 304 304 291 285 290 280 265 282 330 4 343 2 9 357 7 13 356 351 1 8 20 44 57 58 58 55 51 45 37 34 33 30 36 174 192 194 194 194 193 193 194 195 194 194 194 194 194 195 196 198 200 202 204 207 209 210 211 213 214 215 217 218 218 219 220 220 220 220 219 220
113 270 304 346 338 319 325 322 316 318 320 317 307 292 288 292 292 290 287 287 285 258 255 280 318 32 13 359 8 19 28 26 9 1 1 2 9 26 44 50 49 47 48 43 35 33 32 31 32 35 49 185 194 188 181 183 189 189 189 191 193 194 194 194 196 198 200 203 205 207 208 209 211 212 214 215 217 218 218 219 219 219 220 220 220 220
101 320 318 2 3 329 332 332 329 328 325 325 322 308 297 293 287 281 280 283 283 276 284 302 327 28 351 337 352 38 45 35 28 24 12 360 359 10 29 39 40 39 39 37 33 29 28 30 32 33 32 22 10 188 184 186 190 191 190 190 191 193 193 193 195 198 201 204 206 207 207 208 210 211 214 215 217 218 218 219 219 220 220 220 220 220
105 282 331 32 19 312 332 344 338 334 333 330 316 302 310 313 302 290 288 291 288 286 326 347 14 325 309 319 348 48 59 52 40 35 26 6 355 3 16 23 27 32 31 29 29 26 22 24 25 28 31 24 14 2 298 206 196 195 195 194 194 194 194 195 195 197 201 204 205 206 207 207 208 210 213 215 216 217 218 218 219 220 220 220 220 219
134 143 352 38 10 300 328 345 341 345 345 319 270 314 347 333 312 305 311 317 308 259 103 46 53 297 285 302 11 37 50 56 53 45 38 16 359 3 9 9 12 20 24 24 24 20 16 18 18 17 23 27 18 4 351 327 227 207 203 200 201 200 198 200 201 201 202 203 204 205 206 206 208 209 211 213 215 216 217 218 218 219 220 220 220 219
140 122 173 123 111 295 315 354 358 356 329 262 251 357 346 326 323 338 3 12 349 345 51 177 301 326 305 318 32 56 59 60 66 66 56 40 16 7 4 2 1 6 14 18 18 14 10 10 8 5 7 12 13 6 359 357 349 292 222 205 202 204 203 204 207 207 207 206 205 205 205 206 206 208 210 212 213 214 215 216 217 219 220 220 220 219
156 143 214 119 126 268 331 24 6 289 239 272 312 354 350 345 1 352 341 3 360 354 3 1 344 346 337 335 4 125 116 86 73 69 61 55 45 21 4 0 360 2 5 3 5 9 8 8 6 359 352 349 357 10 6 360 2 352 312 240 211 205 205 206 207 211 212 211 209 207 206 206 206 207 208 209 210 211 213 215 217 217 218 220 220 220
169 170 181 151 141 324 21 70 227 257 288 311 326 2 7 2 4 344 313 349 1 355 355 354 347 345 341 337 337 313 160 126 82 64 56 52 50 37 15 2 358 2 3 355 356 1 1 5 5 354 343 338 349 14 9 354 355 356 336 303 256 221 211 211 209 210 213 214 213 210 207 206 206 206 206 207 207 209 211 213 215 216 217 218 220 220
156 146 136 212 200 142 200 220 254 304 314 323 340 7 360 341 327 317 290 311 346 349 349 347 346 345 342 343 344 335 261 148 68 48 50 48 43 35 22 7 360 3 2 358 359 355 353 1 3 353 343 341 354 11 6 349 344 349 338 316 289 251 227 224 220 215 215 214 213 212 209 207 206 205 205 205 205 207 210 212 214 215 216 216 218 220
162 167 158 179 199 124 176 256 310 312 292 305 328 326 333 319 294 293 271 258 338 347 344 342 346 348 346 346 344 338 342 82 33 20 46 50 42 30 20 10 7 8 3 359 360 355 352 357 360 353 345 345 360 7 359 343 337 340 339 319 299 276 245 235 233 228 224 220 215 212 210 208 207 206 205 205 206 207 209 211 213 214 215 215 217 219
51 133 132 137 171 129 156 218 250 248 236 264 326 327 329 319 304 307 291 250 341 341 335 335 341 346 348 348 343 344 17 54 10 341 21 46 45 32 15 2 6 12 8 1 359 356 353 353 355 354 351 350 357 359 350 340 335 337 335 310 294 289 280 260 250 241 235 229 221 215 211 209 208 207 206 207 207 208 209 210 212 213 214 215 217 219
18 66 107 133 193 199 204 220 241 244 230 311 338 331 321 312 315 326 289 270 334 332 322 324 331 337 343 345 345 353 18 24 340 320 342 19 42 34 20 7 5 10 9 2 356 353 354 356 356 356 354 350 351 352 347 341 334 330 320 297 287 291 301 302 297 289 271 248 230 219 214 212 210 208 208 208 208 209 209 210 211 212 213 214 216 218
348 46 126 170 202 219 224 230 261 257 233 341 327 315 312 311 308 270 260 285 311 306 302 312 317 320 336 347 348 349 338 327 321 322 330 350 22 22 17 12 10 11 9 1 353 354 358 1 359 356 351 347 348 350 348 339 328 317 310 301 298 306 314 315 314 315 312 293 250 225 217 215 213 210 210 210 209 209 209 210 210 211 212 213 214 216
330 343 277 181 190 225 214 219 279 269 307 351 319 309 329 343 240 248 292 292 285 287 298 309 304 302 322 336 329 316 313 316 323 331 335 343 1 8 7 8 8 10 7 358 353 357 1 1 358 353 348 348 350 349 344 334 321 315 314 314 316 319 320 320 320 318 316 310 278 236 220 216 215 212 211 211 209 208 208 209 210 210 211 211 212 214
171 167 277 216 192 265 177 214 275 259 350 0 345 340 13 44 240 294 311 289 275 288 300 301 294 291 302 312 307 308 316 318 322 329 333 334 348 6 5 3 1 2 359 352 351 357 360 1 359 352 346 348 350 348 343 336 328 325 326 325 325 324 322 321 322 321 317 311 291 250 225 217 215 213 212 210 208 207 207 208 208 209 209 210 210 212
181 166 224 242 211 153 173 214 222 184 104 0 4 327 299 295 295 324 322 302 297 307 309 309 304 297 296 297 294 299 309 311 313 322 327 326 333 357 1 358 356 355 353 349 350 354 356 356 356 352 348 349 351 349 345 341 337 334 333 331 329 328 326 324 323 322 317 311 297 262 231 219 214 213 211 210 208 206 206 206 206 206 207 208 209 210
219 181 165 227 234 211 217 242 262 66 358 335 330 275 286 308 340 349 333 318 317 319 318 316 311 309 307 297 285 285 295 299 303 312 317 319 323 333 346 350 348 349 351 351 352 355 355 353 351 350 349 351 353 352 348 345 341 335 333 334 334 331 328 325 323 321 317 312 300 270 238 222 215 212 211 209 205 204 204 204 203 204 205 206 207 209
222 186 139 165 277 289 265 261 288 334 319 312 310 292 298 327 338 334 325 312 306 306 309 306 302 306 309 299 284 271 271 281 291 299 305 314 320 321 329 337 342 348 353 353 352 352 352 351 351 350 350 351 354 353 350 347 344 337 333 335 335 333 330 326 323 319 316 314 304 275 241 223 215 211 209 207 205 204 203 201 201 202 203 204 206 209
236 191 177 172 341 327 286 284 319 333 309 308 310 310 323 328 321 316 311 301 299 298 295 292 290 293 298 297 289 277 268 269 275 284 295 309 313 316 317 314 324 343 350 349 351 351 349 349 350 348 347 348 351 352 350 348 346 342 339 338 337 334 332 329 324 317 314 316 309 279 240 221 214 209 206 205 203 203 203 202 201 201 202 203 205 209
183 162 191 210 179 202 258 284 311 318 306 303 307 319 326 321 312 309 304 297 297 293 285 283 285 286 290 294 291 284 272 261 259 269 280 289 299 310 310 297 306 330 342 345 354 354 349 346 346 344 343 343 346 350 350 350 350 348 346 343 339 336 334 331 326 317 312 315 313 286 242 221 213 207 203 202 202 200 200 201 202 203 205 205 206 207
151 155 181 192 216 266 276 289 321 325 310 299 308 313 311 307 304 306 304 299 295 294 292 291 289 285 284 286 289 290 280 263 252 258 266 271 285 306 302 292 297 317 332 343 356 356 349 344 343 341 340 340 344 349 351 352 353 354 352 348 342 338 335 331 326 319 314 315 317 298 250 223 213 206 201 200 200 201 201 201 202 204 208 210 211 211
152 182 177 131 234 268 262 254 297 313 293 282 295 302 301 302 303 302 299 299 297 296 297 297 294 291 286 280 280 284 282 272 257 250 260 265 267 291 302 295 293 305 326 343 354 352 346 344 342 340 339 339 343 349 353 354 356 358 356 352 347 342 337 330 324 320 317 317 322 310 264 226 214 207 202 199 199 199 199 201 203 206 209 212 214 216
175 187 175 169 206 229 232 225 214 239 265 272 283 291 295 300 302 298 297 300 300 297 294 290 289 290 288 282 278 275 275 274 263 253 256 262 263 280 303 302 294 297 314 339 349 347 342 340 341 342 341 341 343 348 354 356 358 359 358 356 352 348 341 331 320 318 317 316 322 320 291 236 216 208 203 201 199 195 192 194 200 206 211 214 216 218
Height
764 777 782 781 781 777 773 772 774 773 772 774 777 778 778 778 774 764 761 756 755 770 773 768 772 773 773 772 768 769 768 770 774 777 783 783 778 778 779 780 781 783 783 783 786 789 791 794 797 801 804 807 810 813 816 818 821 823 825 827 829 831 833 834 835 837 839 840 841 843 844 845 846 847 848 848 849 850 850 851 852 853 854 854 855 855
767 783 784 775 773 770 768 768 768 770 771 773 777 780 778 776 771 760 757 754 750 763 770 765 770 771 770 771 767 767 772 772 771 773 776 776 774 774 775 777 778 780 780 781 784 786 789 792 794 798 801 804 807 810 813 816 818 821 824 826 827 829 831 832 833 835 836 838 840 841 842 844 845 846 847 848 849 849 850 851 852 853 854 855 855 856
780 784 777 768 766 765 766 765 767 770 771 773 776 780 781 772 767 761 752 749 750 762 769 765 769 772 767 768 767 766 768 767 765 765 766 767 770 772 773 774 776 778 779 780 782 783 785 789 792 795 798 801 805 807 811 813 816 819 822 824 826 828 830 831 833 833 835 837 838 840 842 843 844 845 846 847 848 849 849 850 851 852 853 854 855 856
789 781 767 761 762 764 767 765 767 771 771 774 775 780 780 768 769 772 759 754 758 768 773 767 770 774 769 770 770 765 763 762 762 761 760 761 764 766 767 769 772 775 778 778 779 780 782 786 789 792 795 798 802 805 808 811 814 816 819 821 824 826 828 830 832 833 834 836 838 840 842 843 844 844 846 847 848 849 849 850 850 851 852 853 854 855
781 768 757 760 762 764 769 767 767 773 775 772 770 774 774 764 766 770 762 759 765 777 778 773 784 786 774 775 774 766 764 763 761 761 761 761 759 762 764 765 768 770 772 775 777 777 779 782 785 788 792 795 799 802 805 808 810 813 816 819 821 824 827 828 830 832 834 835 837 840 842 843 844 845 845 846 848 848 849 849 850 851 852 852 853 854
771 757 752 761 764 764 769 770 766 770 776 773 765 761 761 759 760 762 759 761 777 795 782 773 802 805 778 775 775 766 766 766 763 762 763 762 760 762 764 765 766 767 768 770 772 775 776 779 783 786 789 792 795 798 801 805 807 810 814 816 819 822 825 827 829 831 833 834 836 837 839 841 842 843 844 845 846 847 848 849 850 851 852 852 853 854
762 752 751 759 763 764 768 770 763 762 774 776 759 748 750 753 757 760 759 764 779 788 770 760 792 805 785 777 773 765 767 767 765 765 764 763 761 761 762 762 763 764 765 767 769 771 773 777 780 783 786 788 791 794 798 803 805 808 811 814 817 820 822 825 827 830 831 833 834 835 837 838 839 841 842 843 845 846 847 849 850 851 852 853 854 854
756 754 755 757 761 765 769 769 759 755 770 771 750 741 747 750 755 757 758 764 765 764 765 761 772 796 797 780 767 765 771 772 769 767 764 761 760 759 759 758 758 759 761 763 766 768 770 773 776 779 783 785 788 792 796 800 803 805 808 812 815 818 820 823 825 828 830 831 833 834 835 837 838 839 841 842 844 846 847 848 849 850 851 852 853 854
753 757 758 757 762 766 765 761 751 750 763 758 740 739 744 745 750 752 754 762 758 761 779 773 766 794 803 776 762 766 772 775 770 764 761 759 757 757 756 756 755 755 755 757 761 763 766 769 772 775 779 783 786 790 793 796 800 803 806 810 813 816 818 820 823 826 828 830 831 833 834 835 836 838 840 842 843 845 846 847 848 849 851 852 853 854
753 753 751 753 761 760 754 749 744 748 755 745 736 738 740 742 746 749 754 758 760 769 784 777 768 788 795 774 768 774 774 771 763 756 754 753 754 754 753 754 753 753 753 754 756 759 762 765 769 773 777 781 784 787 791 794 798 801 804 808 810 813 816 818 821 823 826 829 830 831 832 833 835 836 839 841 842 844 845 846 847 848 849 851 852 853
751 746 744 747 751 748 744 743 739 742 743 737 739 744 745 746 745 749 754 756 770 781 777 769 764 775 786 777 769 767 759 751 749 751 752 751 752 752 751 751 751 752 752 752 754 756 759 764 768 772 775 779 782 785 789 792 795 798 801 804 807 810 813 816 819 821 824 826 828 829 830 831 833 834 836 838 840 842 843 844 845 846 848 849 850 852
751 750 749 744 742 742 742 742 738 736 736 739 746 751 757 759 753 757 760 762 782 789 771 761 759 768 782 775 761 751 737 732 738 743 745 746 747 746 747 747 747 749 750 751 753 755 758 762 766 770 773 776 780 783 786 789 792 795 798 801 804 808 811 813 816 819 821 824 826 827 828 829 831 832 833 835 837 839 840 842 844 845 847 848 849 851
756 755 754 745 741 746 751 753 750 740 737 744 750 757 772 781 779 781 781 779 787 782 764 758 758 766 770 757 748 742 730 728 732 731 733 736 739 740 741 742 742 744 747 748 750 752 755 758 761 765 769 772 776 780 783 786 789 793 795 798 801 804 807 810 813 816 819 821 823 824 826 828 829 830 831 833 834 836 838 839 841 843 844 846 847 849
768 760 757 753 750 750 757 767 772 763 752 753 755 761 778 791 800 804 796 790 790 774 756 752 757 768 764 743 734 733 725 722 724 725 728 729 731 735 734 736 740 741 744 745 747 749 751 753 756 760 764 768 772 776 779 783 786 790 793 795 798 801 804 807 810 813 816 818 820 822 824 826 827 828 830 831 832 834 836 837 839 840 842 843 845 846
786 779 768 767 764 758 759 767 773 769 761 755 749 754 769 778 791 801 795 791 788 773 758 754 761 770 762 738 722 719 715 714 716 718 721 724 726 729 733 737 741 742 743 743 744 745 746 748 752 756 760 763 767 772 775 779 782 785 789 792 794 798 801 804 807 810 813 815 818 820 822 824 825 826 828 829 831 833 834 836 837 839 840 841 843 844
796 790 772 767 765 761 764 762 758 761 763 754 745 755 766 763 767 780 782 777 776 778 771 762 761 756 742 725 712 713 713 711 714 715 718 724 725 729 736 739 739 740 740 740 741 742 743 745 748 752 756 760 763 768 771 774 777 780 784 787 790 794 797 801 804 807 810 812 815 818 819 821 823 825 826 828 830 831 833 834 835 837 838 839 841 842
800 791 770 764 762 761 767 763 756 765 770 760 756 762 757 745 751 770 778 767 770 789 782 763 760 750 738 729 714 713 719 714 713 716 718 721 724 729 734 734 735 736 736 736 737 738 739 741 745 748 751 756 759 763 766 769 772 775 779 783 787 791 794 797 800 803 806 809 812 815 817 819 821 823 824 826 828 830 831 833 834 835 837 838 840 841
798 792 776 770 770 765 762 759 756 761 767 773 776 768 751 743 748 764 780 779 783 798 783 762 763 760 756 748 720 713 724 720 715 714 715 719 723 727 728 727 729 729 730 732 732 733 735 737 740 743 747 750 753 757 761 764 769 772 776 779 783 787 790 793 796 800 803 806 809 812 814 816 818 820 822 823 825 828 830 832 833 834 836 837 838 840
795 796 785 775 778 772 759 761 766 762 760 773 777 765 762 771 769 768 782 789 793 801 787 767 764 761 759 750 727 716 719 718 715 711 713 718 720 722 723 723 725 725 727 730 730 732 733 733 736 739 742 746 749 754 757 762 766 769 773 776 779 783 786 790 794 797 801 803 806 808 810 813 815 817 819 821 823 826 828 829 831 833 834 835 837 838
796 803 797 779 777 777 768 775 791 786 769 765 769 767 769 777 777 773 776 779 787 796 791 779 772 763 754 744 734 726 717 714 715 710 709 713 713 713 716 717 721 723 724 726 727 729 729 730 733 735 739 743 746 751 755 759 763 766 770 773 777 780 784 788 792 794 798 801 803 806 808 811 813 815 817 819 821 823 824 826 828 830 832 833 835 836
799 809 808 789 780 783 787 792 800 801 791 783 786 788 786 781 776 773 769 766 775 787 789 788 781 767 755 747 741 734 724 717 714 707 704 704 703 704 706 709 714 716 718 719 721 723 724 726 729 732 736 740 744 749 752 756 760 763 767 770 773 777 781 784 788 791 795 798 801 803 806 808 811 813 815 817 819 820 821 823 825 827 829 831 832 834
808 813 813 807 798 796 799 796 791 794 794 793 797 798 797 794 790 793 788 772 769 776 777 780 780 769 756 748 741 735 726 717 708 703 701 699 698 700 701 703 706 709 712 713 714 717 720 722 726 730 734 738 742 746 749 753 757 760 764 767 770 774 777 780 783 787 791 794 798 800 802 805 808 810 813 815 816 817 818 820 822 824 827 828 830 831
808 814 818 818 810 803 799 792 788 789 784 786 794 796 796 796 797 809 811 793 782 778 769 768 773 767 751 740 738 734 725 713 701 694 693 694 693 695 697 698 700 702 704 706 709 712 715 718 723 727 731 735 739 742 745 749 753 756 760 763 767 770 773 776 780 784 788 791 794 796 799 802 805 807 810 812 813 814 815 817 819 821 823 825 827 829
808 817 824 821 810 800 792 786 784 785 786 795 800 797 798 799 798 801 801 795 794 792 787 785 781 768 749 738 737 732 723 713 702 690 687 689 690 690 693 695 697 699 700 703 706 709 712 716 721 725 729 732 735 738 742 745 749 753 756 760 763 766 769 774 777 782 785 788 790 793 796 799 802 805 807 809 810 811 813 815 816 818 820 822 824 825
815 823 829 830 825 815 805 801 799 796 800 810 810 802 800 798 795 794 791 792 796 796 799 802 795 777 757 744 739 733 725 720 712 699 690 689 691 691 692 694 696 699 702 704 707 710 713 716 719 722 725 728 731 735 738 742 745 749 752 755 759 762 766 771 775 778 782 785 788 790 793 796 798 801 803 805 807 809 810 812 814 816 817 819 821 822
817 824 828 836 844 841 834 831 827 820 815 815 811 806 801 798 797 798 799 802 801 796 796 801 800 784 762 749 745 740 734 730 723 711 699 695 697 697 698 701 703 705 707 708 709 711 713 715 717 720 722 726 729 732 735 739 742 745 749 752 755 759 763 767 771 775 778 781 784 787 789 792 794 797 799 802 804 806 808 810 811 813 814 816 818 820
817 823 825 832 839 841 838 834 828 825 823 819 813 808 803 800 798 799 806 809 803 800 797 793 793 786 770 761 758 752 748 745 737 726 715 709 707 705 706 708 710 714 716 715 715 715 715 717 718 719 722 724 727 730 734 737 740 743 746 749 753 756 760 764 768 771 774 777 780 783 785 787 790 793 796 798 801 803 806 808 809 811 812 813 815 817
823 827 825 827 831 829 828 825 820 820 821 817 813 810 805 802 798 801 809 805 800 806 803 785 783 788 781 773 769 764 760 757 752 743 733 726 719 713 712 713 715 720 722 722 723 722 721 722 722 722 723 725 727 730 732 735 739 742 745 748 751 755 758 761 764 767 771 773 776 778 780 783 787 789 792 795 798 800 803 805 807 808 809 811 813 814
827 831 825 825 829 825 822 820 817 817 817 813 810 809 805 802 800 802 802 796 796 806 801 782 779 787 786 779 773 768 765 765 763 756 747 739 731 722 719 720 723 726 727 729 730 728 727 726 724 725 726 727 729 731 733 736 739 742 745 747 750 752 755 758 761 764 767 769 771 774 777 780 784 786 789 792 794 796 799 801 803 805 807 809 810 811
824 828 824 824 828 826 822 819 816 815 815 813 810 807 803 801 799 797 795 791 791 795 790 781 781 784 785 782 775 767 766 767 765 761 756 751 745 736 730 730 732 732 732 734 735 733 732 730 728 727 728 729 731 732 734 737 738 740 742 745 747 750 752 755 758 760 763 765 767 770 773 777 780 783 785 788 790 792 795 797 800 802 804 805 807 808
823 827 823 823 829 830 823 819 818 817 817 817 813 806 801 800 797 794 792 788 787 789 784 781 785 786 780 778 774 768 766 768 768 765 763 763 758 749 742 739 739 739 738 738 738 737 735 734 732 732 732 733 734 733 734 734 735 737 739 740 742 745 747 750 753 755 758 760 763 766 769 772 775 778 781 783 786 788 791 794 797 799 801 802 804 806
823 827 823 825 835 834 826 823 823 819 817 819 816 806 802 802 800 796 791 786 786 788 785 785 793 792 781 775 775 771 768 771 773 769 768 770 767 760 754 749 747 745 743 741 740 740 739 738 737 736 736 736 736 737 736 735 734 735 736 738 739 741 743 745 746 749 751 754 758 761 763 766 769 772 775 778 781 784 787 790 793 795 797 799 801 803
822 826 827 830 837 835 828 827 826 824 826 825 814 805 804 803 800 797 791 786 785 783 785 791 793 788 780 776 776 775 773 774 776 773 772 773 772 768 764 759 755 751 748 745 744 743 743 741 740 740 739 738 737 738 739 738 737 735 734 735 737 739 741 743 744 746 747 750 753 755 757 761 763 766 770 773 776 779 783 786 789 791 794 796 798 800
822 825 828 831 835 836 831 826 827 834 838 825 807 802 804 802 801 803 800 795 790 783 783 788 787 781 780 779 777 777 776 775 775 774 774 774 774 773 770 765 760 755 751 748 747 746 744 742 741 741 740 740 739 738 738 739 738 737 736 735 735 736 738 740 743 744 745 747 748 750 753 755 757 761 764 768 771 775 778 781 784 787 790 793 795 796
823 826 829 830 833 836 832 831 838 841 831 814 803 803 804 801 803 808 806 800 798 792 787 789 789 784 781 779 776 775 775 775 775 774 774 775 775 775 775 771 765 760 755 752 750 748 746 743 742 740 740 740 739 736 737 738 737 738 740 739 735 734 735 737 739 741 743 744 745 746 748 750 752 756 759 763 767 769 772 776 779 782 786 789 791 792
821 825 828 830 833 836 835 839 842 833 815 806 805 806 807 806 807 812 810 802 800 800 796 794 792 788 783 780 775 772 771 772 773 773 775 775 774 775 777 775 770 765 762 758 753 750 748 746 745 744 742 741 738 734 735 738 737 737 742 745 741 737 735 735 735 736 738 740 741 743 744 746 749 751 754 758 761 764 767 771 774 778 782 785 787 789
818 823 827 831 833 835 838 838 835 826 818 814 813 813 815 817 816 818 817 808 802 802 800 796 794 790 786 781 776 771 768 769 774 777 776 775 775 776 778 776 771 766 763 761 757 753 750 748 747 746 744 742 739 734 734 737 737 735 739 745 744 739 736 735 734 733 734 735 737 739 741 743 746 748 751 754 756 759 762 766 770 774 778 781 783 784
815 819 824 830 832 833 837 839 837 835 831 824 821 818 815 814 813 814 815 811 806 804 802 798 795 793 789 785 781 773 768 772 782 784 780 778 779 779 778 777 772 767 763 762 759 755 751 747 746 746 744 742 739 736 737 740 739 735 735 741 745 741 736 734 734 733 732 732 732 735 737 739 742 744 747 749 751 754 758 762 766 770 773 776 778 780
815 819 822 828 832 833 837 840 841 837 829 824 822 817 811 809 807 807 812 814 809 805 804 800 797 795 793 790 786 780 777 784 790 785 779 779 780 780 780 778 773 768 764 762 762 760 755 751 749 747 744 741 738 736 738 739 738 734 734 741 748 743 736 733 733 732 731 730 730 731 733 735 737 739 741 743 746 749 753 757 761 765 769 772 774 776
820 823 826 830 832 832 834 838 836 829 822 820 819 815 809 805 802 808 819 818 809 807 807 803 798 796 794 792 790 788 788 792 791 782 776 777 777 777 778 776 773 768 764 763 764 763 760 756 753 749 746 743 740 738 737 736 734 734 736 742 745 740 733 731 731 728 727 726 726 727 728 730 732 734 736 738 741 745 749 753 757 761 764 767 770 773
826 827 828 830 831 831 833 836 833 825 819 819 818 813 807 802 803 815 823 817 809 808 807 803 799 796 794 792 792 792 790 788 785 779 775 774 774 773 773 773 771 768 765 765 766 763 759 755 752 750 748 746 743 741 739 738 736 736 737 739 738 733 729 727 725 723 722 721 721 722 723 725 727 729 731 734 738 742 745 749 752 756 759 763 766 769
832 832 831 830 832 832 833 835 834 826 820 819 817 810 806 807 814 819 817 810 809 807 803 801 798 794 792 792 791 790 787 782 779 777 774 773 773 771 770 769 768 766 766 767 767 763 758 754 752 750 748 746 744 744 744 744 742 739 737 734 731 728 726 723 721 718 717 717 717 718 719 721 723 725 727 731 734 738 741 744 748 752 755 759 762 764
834 835 833 833 833 834 836 837 835 830 823 820 818 813 812 817 821 818 812 809 808 805 802 800 796 792 791 789 787 786 783 780 778 775 773 772 772 770 768 766 765 765 765 766 766 762 758 755 754 752 750 747 746 747 747 746 743 739 736 733 729 727 724 720 718 716 714 714 714 715 715 717 719 722 724 727 730 734 737 741 745 748 752 755 758 761
835 835 835 834 832 834 836 833 827 826 824 822 822 820 819 819 818 816 815 813 808 805 804 801 796 792 790 787 785 784 782 780 778 775 773 772 770 769 767 765 765 764 764 764 763 760 757 755 754 754 753 751 749 747 746 743 740 736 734 731 729 726 722 719 716 714 712 711 711 711 712 713 715 718 721 723 726 730 734 738 741 745 748 751 754 756
834 832 833 834 832 831 831 825 819 821 823 822 821 820 818 817 816 816 817 815 811 809 806 802 798 794 790 787 785 782 781 779 777 775 773 771 769 767 766 765 765 765 763 762 759 757 756 754 752 752 753 751 748 745 742 739 737 734 732 729 727 724 721 718 715 712 710 708 708 708 709 710 712 714 717 720 723 726 730 734 738 741 744 747 749 751
831 831 833 835 833 829 824 820 818 821 822 820 819 818 816 816 815 815 814 813 812 810 807 804 800 795 792 789 785 782 781 779 776 774 773 771 769 767 766 766 766 765 763 761 758 756 755 753 751 750 750 748 746 744 740 737 735 733 731 728 726 724 721 718 714 711 708 707 705 705 706 707 708 711 714 717 719 722 725 729 733 736 739 742 744 745
831 831 833 834 835 833 825 818 818 821 821 818 817 815 814 814 813 812 812 810 809 807 805 803 800 795 791 789 785 783 780 777 775 774 772 772 771 769 767 767 767 765 763 762 759 757 755 754 752 750 748 747 745 743 740 737 734 731 729 727 725 723 720 717 714 710 707 705 704 703 703 704 705 707 711 714 716 719 722 725 728 731 733 735 737 740
830 831 832 833 834 833 827 820 819 820 818 816 815 815 814 813 811 809 807 806 805 803 802 800 798 794 790 786 784 782 778 776 775 774 772 771 771 769 768 767 765 763 762 760 759 756 754 753 751 750 748 747 745 742 740 737 733 729 726 724 722 720 718 714 712 709 706 704 702 701 700 700 701 704 707 710 712 715 718 720 723 726 727 729 731 734
827 829 831 832 833 832 826 821 821 821 816 814 814 814 813 812 810 807 805 803 801 799 798 796 795 793 789 785 782 780 777 774 772 771 771 770 769 769 768 766 763 761 759 758 757 756 754 752 750 749 747 746 744 741 738 735 732 728 724 721 719 718 715 712 709 707 705 703 700 699 698 698 699 700 703 705 708 710 713 715 717 719 721 723 725 727
826 827 829 832 834 831 824 821 822 824 820 816 814 813 811 810 808 806 803 800 797 796 794 793 790 788 786 783 780 778 776 772 769 769 769 768 767 767 766 764 762 760 757 756 756 755 754 753 751 749 747 745 742 739 736 732 729 725 722 719 717 715 713 710 707 705 703 701 699 698 696 696 696 697 699 701 704 706 709 711 713 715 717 719 721 722
820 821 823 826 827 822 818 818 821 823 820 815 812 811 809 807 806 804 801 797 795 793 791 790 788 785 782 779 776 775 773 770 767 765 765 764 765 765 764 763 761 759 757 757 756 755 754 753 751 749 746 743 740 737 733 729 725 723 720 718 716 714 711 709 706 704 702 700 699 697 695 695 695 695 696 698 700 703 706 708 711 713 714 715 717 718